TimeMDT,TemperatureF,Dew PointF,Humidity,Sea Level PressureIn,VisibilityMPH,Wind Direction,Wind SpeedMPH,Gust SpeedMPH,PrecipitationIn,Events,Conditions,WindDirDegrees,DateUTC
12:53 AM,44.1,28.0,53,29.99,10.0,NW,5.8,-,N/A,,Clear,310,2011-10-21 06:53:00
1:53 AM,44.1,28.0,53,29.99,10.0,NW,3.5,-,N/A,,Clear,320,2011-10-21 07:53:00
2:53 AM,43.0,28.0,56,30.01,10.0,NNW,4.6,-,N/A,,Clear,330,2011-10-21 08:53:00
3:53 AM,42.1,28.0,58,30.01,10.0,NNW,4.6,-,N/A,,Clear,330,2011-10-21 09:53:00
4:53 AM,37.9,28.0,68,30.06,10.0,Calm,Calm,-,N/A,,Clear,0,2011-10-21 10:53:00
5:53 AM,39.0,28.0,65,30.06,10.0,NW,4.6,-,N/A,,Clear,310,2011-10-21 11:53:00
6:53 AM,39.0,28.0,65,30.09,10.0,NW,3.5,-,N/A,,Clear,310,2011-10-21 12:53:00
7:53 AM,37.0,28.9,73,30.12,10.0,NW,4.6,-,N/A,,Scattered Clouds,320,2011-10-21 13:53:00
11:53 AM,59.0,30.0,33,30.06,10.0,SSW,9.2,-,N/A,,Clear,200,2011-10-21 17:53:00
12:53 PM,57.9,28.9,33,30.06,10.0,WSW,11.5,-,N/A,,Mostly Cloudy,250,2011-10-21 18:53:00
1:53 PM,57.0,28.9,34,30.05,10.0,WNW,4.6,-,N/A,,Mostly Cloudy,290,2011-10-21 19:53:00
2:53 PM,51.1,35.1,54,30.10,10.0,NE,5.8,-,N/A,,Overcast,40,2011-10-21 20:53:00
3:53 PM,48.9,37.0,64,30.10,10.0,NE,8.1,-,0.00,Rain,Light Rain,50,2011-10-21 21:53:00
4:53 PM,48.9,37.0,64,30.12,10.0,East,8.1,-,0.00,,Overcast,80,2011-10-21 22:53:00
5:53 PM,46.0,37.0,71,30.15,10.0,NE,5.8,-,N/A,,Overcast,40,2011-10-21 23:53:00
6:53 PM,43.0,39.0,86,30.17,10.0,Calm,Calm,-,0.02,,Overcast,0,2011-10-22 00:53:00
7:53 PM,41.0,39.0,93,30.19,10.0,WNW,4.6,-,0.00,,Mostly Cloudy,300,2011-10-22 01:53:00
9:53 PM,37.0,36.0,96,30.13,10.0,NW,3.5,-,N/A,,Clear,320,2011-10-22 03:53:00
10:53 PM,36.0,35.1,97,30.14,10.0,Calm,Calm,-,N/A,,Clear,0,2011-10-22 04:53:00
11:53 PM,34.0,33.1,96,30.12,10.0,NW,3.5,-,N/A,,Clear,310,2011-10-22 05:53:00